JP7FSO Weather Reports


time (UTC)temp
C
wind
direction
speed
KPH
gust
KPH
rain 1hr
cm
rain 24hr
cm
rain mn
cm
humidity
%
barometer
mb
20240616051515 31 256 0.0 0.0 0.00 0.00 0.00 42 992.6
20240616050023 31 289 0.0 0.0 0.00 0.00 0.00 39 992.4
20240616044535 31 289 0.0 0.0 0.00 0.00 0.00 39 992.4
20240616043003 31 303 1.6 0.0 0.00 0.00 0.00 39 992.5
20240616041502 31 330 0.0 0.0 0.00 0.00 0.00 40 992.6
20240616040101 31 110 1.6 0.0 0.00 0.00 0.00 42 992.6
20240616034525 31 280 1.6 0.0 0.00 0.00 0.00 42 993.1
20240616033014 31 83 0.0 0.0 0.00 0.00 0.00 42 993.5
20240616031630 31 136 1.6 0.0 0.00 0.00 0.00 42 993.6
20240616030005 30 310 0.0 0.0 0.00 0.00 0.00 45 993.7
20240616024609 29 180 0.0 0.0 0.00 0.00 0.00 50 994.1
20240616023058 28 123 1.6 0.0 0.00 0.00 0.00 49 994.2
20240616021509 27 304 1.6 0.0 0.00 0.00 0.00 52 994.4
20240616020120 27 111 1.6 0.0 0.00 0.00 0.00 53 994.5
20240616014503 26 158 0.0 0.0 0.00 0.00 0.00 56 994.1
20240616013013 26 262 0.0 0.0 0.00 0.00 0.00 56 994.4
20240616011621 26 103 1.6 0.0 0.00 0.00 0.00 59 994.4
20240616004603 25 113 0.0 0.0 0.00 0.00 0.00 60 994.7
20240616003100 24 102 1.6 0.0 0.00 0.00 0.00 63 995.2
20240616001501 24 192 0.0 0.0 0.00 0.00 0.00 64 995.2
20240616000053 23 265 0.0 0.0 0.00 0.00 0.00 66 995.3
20240615234610 23 272 0.0 0.0 0.00 0.00 0.00 68 995.2
20240615233027 23 105 0.0 0.0 0.00 0.00 0.00 70 995.7
20240615231514 22 248 0.0 0.0 0.00 0.00 0.00 70 995.7
20240615230028 22 116 0.0 0.0 0.00 0.00 0.00 72 996.0
20240615224539 21 119 0.0 0.0 0.00 0.00 0.00 74 996.3
20240615223115 21 110 0.0 0.0 0.00 0.00 0.00 76 996.3
20240615221511 20 99 0.0 0.0 0.00 0.00 0.00 78 996.3
20240615220020 20 103 0.0 0.0 0.00 0.00 0.00 80 996.1
20240615214510 20 110 0.0 0.0 0.00 0.00 0.00 81 996.3
20240615213016 20 110 0.0 0.0 0.00 0.00 0.00 82 995.9
20240615211507 19 109 0.0 0.0 0.00 0.00 0.00 82 996.2
20240615210056 19 113 0.0 0.0 0.00 0.00 0.00 82 995.9
20240615204517 19 113 0.0 0.0 0.00 0.00 0.00 82 995.9
20240615203019 19 113 0.0 0.0 0.00 0.00 0.00 82 995.8
20240615201601 19 103 0.0 0.0 0.00 0.00 0.00 82 995.9
20240615200026 20 122 0.0 0.0 0.00 0.00 0.00 82 996.2
20240615194603 20 122 0.0 0.0 0.00 0.00 0.00 81 996.2
20240615193105 20 122 0.0 0.0 0.00 0.00 0.00 81 996.2
20240615191512 20 122 0.0 0.0 0.00 0.00 0.00 81 996.2
20240615190004 20 121 0.0 0.0 0.00 0.00 0.00 80 996.4
20240615184607 20 122 0.0 0.0 0.00 0.00 0.00 80 996.2
20240615183029 20 110 0.0 0.0 0.00 0.00 0.00 80 996.2
20240615181601 20 103 0.0 0.0 0.00 0.00 0.00 79 996.2
20240615180110 20 153 0.0 0.0 0.00 0.00 0.00 78 996.1
20240615174541 21 153 0.0 0.0 0.00 0.00 0.00 77 996.1
20240615173022 21 153 0.0 0.0 0.00 0.00 0.00 76 996.2
20240615171603 21 101 0.0 0.0 0.00 0.00 0.00 73 996.6
20240615170005 21 130 0.0 0.0 0.00 0.00 0.00 68 996.7
20240615164613 21 126 0.0 0.0 0.00 0.00 0.00 70 996.7
20240615163104 21 113 0.0 0.0 0.00 0.00 0.00 66 997.1
20240615161513 21 104 0.0 0.0 0.00 0.00 0.00 66 997.2
20240615160006 21 142 1.6 0.0 0.00 0.00 0.00 66 997.2
20240615154604 21 140 0.0 0.0 0.00 0.00 0.00 65 997.3
20240615153101 22 127 0.0 0.0 0.00 0.00 0.00 64 997.6
20240615151506 21 121 1.6 0.0 0.00 0.00 0.00 64 997.6
20240615150007 21 145 0.0 0.0 0.00 0.00 0.00 65 997.8
20240615144529 21 99 0.0 0.0 0.00 0.00 0.00 71 997.9
20240615143100 21 172 0.0 0.0 0.00 0.00 0.00 76 998.0
20240615140003 22 125 0.0 0.0 0.00 0.00 0.00 76 998.2
20240615134514 22 123 0.0 0.0 0.00 0.00 0.00 76 998.4
20240615131519 22 90 0.0 0.0 0.00 0.00 0.00 75 998.7
20240615130055 22 94 0.0 0.0 0.00 0.00 0.00 75 998.7
20240615124510 22 110 0.0 0.0 0.00 0.00 0.00 74 998.8
20240615123040 22 96 0.0 0.0 0.00 0.00 0.00 74 998.7
20240615121523 22 81 0.0 0.0 0.00 0.00 0.00 74 998.6
20240615120011 23 193 0.0 0.0 0.00 0.00 0.00 74 998.6
20240615114516 23 132 0.0 0.0 0.00 0.00 0.00 73 998.7
20240615113027 23 89 1.6 0.0 0.00 0.00 0.00 72 998.5
20240615111511 23 119 1.6 0.0 0.00 0.00 0.00 71 998.6
20240615110009 24 128 0.0 0.0 0.00 0.00 0.00 70 998.3
20240615104516 24 100 1.6 0.0 0.00 0.00 0.00 69 998.3
20240615103014 25 96 3.2 0.0 0.00 0.00 0.00 68 998.0
20240615100007 26 113 1.6 0.0 0.00 0.00 0.00 66 998.0
20240615094513 26 115 1.6 0.0 0.00 0.00 0.00 64 997.8
20240615093016 26 86 1.6 0.0 0.00 0.00 0.00 63 997.8
20240615091510 27 167 1.6 0.0 0.00 0.00 0.00 62 997.8
20240615090005 27 169 0.0 0.0 0.00 0.00 0.00 61 997.6
20240615084604 28 132 1.6 0.0 0.00 0.00 0.00 60 997.3
20240615083034 28 121 1.6 0.0 0.00 0.00 0.00 57 996.9
20240615081529 29 150 0.0 0.0 0.00 0.00 0.00 56 997.1
20240615080030 30 117 1.6 0.0 0.00 0.00 0.00 54 997.1
20240615073004 31 181 0.0 0.0 0.00 0.00 0.00 53 997.2
20240615071528 31 139 0.0 0.0 0.00 0.00 0.00 52 997.3
20240615070022 31 296 0.0 0.0 0.00 0.00 0.00 51 997.4
20240615064516 31 137 0.0 0.0 0.00 0.00 0.00 52 997.6
20240615063100 32 99 0.0 0.0 0.00 0.00 0.00 51 997.6
20240615061503 32 118 0.0 0.0 0.00 0.00 0.00 49 997.7
20240615060049 32 194 0.0 0.0 0.00 0.00 0.00 49 997.7
20240615054514 33 186 0.0 0.0 0.00 0.00 0.00 46 997.7
20240615053106 33 168 0.0 0.0 0.00 0.00 0.00 47 997.8